Birmingham, United Kingdom

9:41 AM GMT on February 21, 2018 (GMT +0000)
Birmingham

Weather History for EGBB - September, 2013

Change the Weather History Date:

Monday, September 16, 2013

  Actual Average Record
Temperature  
Mean Temperature 50 °F -  
Max Temperature 55 °F 60 °F 78 °F (2003)
Min Temperature 44 °F 45 °F 39 °F (2004)
Degree Days  
Heating Degree Days 16    
Moisture  
Dew Point 41 °F    
Average Humidity 71    
Maximum Humidity 87    
Minimum Humidity 54    
Precipitation  
Precipitation 0.00 in 0.07 in - ()
Sea Level Pressure  
Sea Level Pressure 29.55 in    
Wind  
Wind Speed 13 mph ()    
Max Wind Speed 20 mph    
Max Gust Speed 31 mph    
Visibility 6.2 miles    
Events      
Averages and records for this station are not official NWS values.
T = Trace of Precipitation, MM = Missing Value Source: Averaged Metar Reports

Daily Weather History Graph

Daily Weather History Graph

Search for Another Location

Airport or City:

Trip Planner

Search our weather history database for the weather conditions in past years. The results will help you decide how hot, cold, wet, or windy it might be!

Date:

Astronomy

Sep. 16, 2013 Rise Set
Actual Time 6:42 AM BST 7:19 PM BST
Civil Twilight 6:08 AM BST 7:53 PM BST
Nautical Twilight 5:27 AM BST 8:34 PM BST
Astronomical Twilight 4:43 AM BST 9:17 PM BST
Moon 5:34 PM BST (9/16) 2:51 AM BST (9/16)
Length of Visible Light 13h 45m
Length of Day
12h 36m
Waxing Gibbous, 88% of the Moon is Illuminated
Sep 16
Waxing Gibbous
Sep 19
Full
Sep 27
Last Quarter
Oct 5
New
Oct 12
First Quarter

Hourly Weather History & Observations

Time (BST) Temp. Windchill Dew Point Humidity Pressure Visibility Wind Dir Wind Speed Gust Speed Precip Events Conditions
12:20 AM 50.0 °F - 41.0 °F 71% 29.56 in 6.2 mi West 12.7 mph - N/A   Scattered Clouds
12:50 AM 46.4 °F 40.7 °F 42.8 °F 87% 29.56 in 6.2 mi West 12.7 mph - N/A   Scattered Clouds
1:20 AM 46.4 °F 41.9 °F 42.8 °F 87% 29.56 in 6.2 mi WSW 9.2 mph - N/A   Scattered Clouds
1:50 AM 48.2 °F - 41.0 °F 76% 29.56 in 6.2 mi West 12.7 mph - N/A   Unknown
2:20 AM 46.4 °F 41.1 °F 39.2 °F 76% 29.56 in 6.2 mi West 11.5 mph - N/A   Unknown
2:50 AM 46.4 °F 40.7 °F 39.2 °F 76% 29.56 in 6.2 mi West 12.7 mph - N/A   Unknown
3:20 AM 46.4 °F 40.7 °F 39.2 °F 76% 29.56 in - WSW 12.7 mph - N/A   Clear
3:50 AM 46.4 °F 40.1 °F 41.0 °F 81% 29.53 in - WSW 15.0 mph - N/A   Clear
4:20 AM 46.4 °F 40.1 °F 41.0 °F 81% 29.53 in - West 15.0 mph - N/A   Clear
4:50 AM 46.4 °F 40.4 °F 39.2 °F 76% 29.53 in - WSW 13.8 mph - N/A   Clear
5:20 AM 46.4 °F 40.7 °F 41.0 °F 81% 29.53 in - WSW 12.7 mph - N/A   Clear
5:50 AM 44.6 °F 39.7 °F 39.2 °F 81% 29.53 in 6.2 mi WSW 9.2 mph - N/A   Unknown
6:20 AM 44.6 °F 38.1 °F 39.2 °F 81% 29.53 in 6.2 mi WSW 13.8 mph - N/A   Unknown
6:50 AM 46.4 °F 40.7 °F 39.2 °F 76% 29.53 in - WSW 12.7 mph - N/A   Clear
7:20 AM 46.4 °F 40.7 °F 39.2 °F 76% 29.53 in - WSW 12.7 mph - N/A   Clear
7:50 AM 46.4 °F 40.7 °F 41.0 °F 81% 29.53 in - WSW 12.7 mph - N/A   Clear
8:20 AM 48.2 °F - 41.0 °F 76% 29.53 in - WSW 12.7 mph - N/A   Clear
8:50 AM 48.2 °F - 41.0 °F 76% 29.53 in 6.2 mi WSW 13.8 mph - N/A   Partly Cloudy
9:20 AM 50.0 °F - 42.8 °F 76% 29.53 in 6.2 mi WSW 13.8 mph - N/A   Scattered Clouds
9:50 AM 51.8 °F - 42.8 °F 71% 29.53 in 6.2 mi West 17.3 mph - N/A   Mostly Cloudy
10:20 AM 51.8 °F - 41.0 °F 67% 29.53 in 6.2 mi West 15.0 mph - N/A   Mostly Cloudy
10:50 AM 51.8 °F - 41.0 °F 67% 29.53 in 6.2 mi West 16.1 mph 27.6 mph N/A   Mostly Cloudy
11:20 AM 53.6 °F - 42.8 °F 67% 29.53 in 6.2 mi West 12.7 mph - N/A   Mostly Cloudy
11:50 AM 53.6 °F - 41.0 °F 62% 29.53 in 6.2 mi WNW 16.1 mph - N/A   Mostly Cloudy
12:20 PM 53.6 °F - 41.0 °F 62% 29.53 in 6.2 mi West 16.1 mph - N/A   Scattered Clouds
12:50 PM 55.4 °F - 39.2 °F 54% 29.53 in 6.2 mi West 17.3 mph - N/A   Mostly Cloudy
1:20 PM 55.4 °F - 41.0 °F 58% 29.56 in 6.2 mi West 15.0 mph - N/A   Scattered Clouds
1:50 PM 55.4 °F - 39.2 °F 54% 29.56 in 6.2 mi West 19.6 mph - N/A   Mostly Cloudy
2:20 PM 55.4 °F - 41.0 °F 58% 29.56 in 6.2 mi West 18.4 mph - N/A   Scattered Clouds
2:50 PM 55.4 °F - 42.8 °F 63% 29.56 in 6.2 mi West 17.3 mph - N/A   Mostly Cloudy
3:20 PM 53.6 °F - 42.8 °F 67% 29.56 in 6.2 mi West 17.3 mph - N/A   Scattered Clouds
3:50 PM 55.4 °F - 41.0 °F 58% 29.56 in 6.2 mi West 18.4 mph 31.1 mph N/A   Scattered Clouds
4:20 PM 55.4 °F - 39.2 °F 54% 29.56 in 6.2 mi West 19.6 mph - N/A   Scattered Clouds
4:50 PM 55.4 °F - 39.2 °F 54% 29.56 in 6.2 mi West 19.6 mph - N/A   Scattered Clouds
5:20 PM 55.4 °F - 39.2 °F 54% 29.56 in 6.2 mi West 17.3 mph - N/A   Scattered Clouds
5:50 PM 53.6 °F - 39.2 °F 58% 29.56 in 6.2 mi West 19.6 mph - N/A   Scattered Clouds
6:20 PM 53.6 °F - 41.0 °F 62% 29.56 in 6.2 mi West 16.1 mph - N/A   Scattered Clouds
6:50 PM 51.8 °F - 41.0 °F 67% 29.56 in 6.2 mi West 15.0 mph - N/A   Scattered Clouds
7:20 PM 51.8 °F - 41.0 °F 67% 29.59 in 6.2 mi West 10.4 mph - N/A   Scattered Clouds
7:50 PM 51.8 °F - 41.0 °F 67% 29.59 in 6.2 mi West 13.8 mph - N/A   Scattered Clouds
8:20 PM 50.0 °F - 41.0 °F 71% 29.59 in - West 12.7 mph - N/A   Clear
8:50 PM 50.0 °F - 41.0 °F 71% 29.59 in - West 9.2 mph - N/A   Clear
9:20 PM 50.0 °F - 42.8 °F 76% 29.59 in 6.2 mi West 12.7 mph - N/A   Partly Cloudy
9:50 PM 48.2 °F - 42.8 °F 82% 29.59 in - West 10.4 mph - N/A   Clear
10:20 PM 48.2 °F - 42.8 °F 82% 29.59 in 6.2 mi WSW 11.5 mph - N/A   Partly Cloudy
10:50 PM 48.2 °F - 42.8 °F 82% 29.59 in 6.2 mi WSW 10.4 mph - N/A   Partly Cloudy
11:20 PM 48.2 °F - 42.8 °F 82% 29.59 in - WSW 9.2 mph - N/A   Clear
11:50 PM 48.2 °F - 42.8 °F 82% 29.59 in - West 11.5 mph - N/A   Clear